Location: ?ernice
(48.8383°N, 14.3803°E)
Time: 21:18:27
(UTC+00:00)

CZ-2D R/B - Pass Details

Date: 23 May 2024
Orbit: 790 x 843 km, 98.8° (Epoch: 21 June)

Event Time Altitude Azimuth Distance (km) Brightness Sun altitude
Rises 00:10:16 0° 23° (NNE) 3,413 7.0 -18.7°
Reaches altitude 10° 00:12:59 10° 34° (NE) 2,470 5.8 -18.6°
Maximum altitude 00:17:41 29° 94° (E) 1,502 3.6 -18.4°
Enters shadow 00:21:27 14° 147° (SSE) 2,160 4.0 -18.1°
